QPF
0.08 0.10 0.10 0.07 0.07 0.08 0.09 0.11 0.13 0.13 0.11 0.11 0.08 0.08 0.08 0.08 0.09 0.06 0.06 0.06 0.05 0.03 0.02 0.02 0.02 0.02 0.02 0.02 0.02 0.02 0.02 0.02 0.02 0.02 0.03 0.03 0.03 0.03
0.12 0.13 0.12 0.08 0.08 0.08 0.08 0.09 0.11 0.13 0.11 0.10 0.09 0.08 0.07 0.07 0.07 0.05 0.05 0.05 0.04 0.03 0.02 0.01 0.01 0.01 0.01 0.01 0.01 0.01 0.01 0.01 0.01 0.02 0.03 0.03 0.03 0.02
0.11 0.12 0.10 0.10 0.11 0.11 0.11 0.11 0.10 0.12 0.12 0.10 0.09 0.09 0.09 0.07 0.06 0.05 0.05 0.04 0.03 0.04 0.04 0.03 0.03 0.02 0.01 0.01 0.01 0.02 0.02 0.02 0.02 0.02 0.03 0.03 0.03 0.04
0.09 0.09 0.09 0.09 0.11 0.12 0.12 0.12 0.11 0.12 0.12 0.11 0.09 0.08 0.09 0.09 0.07 0.07 0.06 0.06 0.05 0.06 0.07 0.05 0.04 0.03 0.02 0.02 0.02 0.03 0.03 0.03 0.03 0.03 0.03 0.04 0.04 0.05
0.12 0.11 0.09 0.09 0.10 0.12 0.11 0.09 0.08 0.08 0.10 0.10 0.10 0.10 0.09 0.08 0.09 0.09 0.09 0.10 0.09 0.07 0.07 0.05 0.03 0.03 0.03 0.03 0.03 0.03 0.04 0.04 0.04 0.04 0.04 0.04 0.04 0.04
0.14 0.16 0.15 0.13 0.11 0.10 0.09 0.09 0.10 0.11 0.11 0.11 0.11 0.11 0.10 0.09 0.10 0.10 0.10 0.09 0.08 0.07 0.06 0.04 0.03 0.03 0.03 0.03 0.03 0.04 0.04 0.05 0.05 0.06 0.06 0.06 0.05 0.04
0.15 0.16 0.16 0.15 0.13 0.12 0.10 0.12 0.12 0.13 0.13 0.12 0.11 0.11 0.10 0.09 0.09 0.10 0.11 0.11 0.10 0.08 0.06 0.05 0.04 0.03 0.03 0.04 0.04 0.05 0.06 0.07 0.08 0.08 0.07 0.07 0.06 0.05
0.09 0.09 0.10 0.09 0.09 0.10 0.09 0.10 0.09 0.11 0.12 0.13 0.13 0.12 0.11 0.11 0.10 0.10 0.10 0.09 0.09 0.08 0.07 0.07 0.05 0.04 0.03 0.03 0.04 0.05 0.06 0.07 0.08 0.09 0.09 0.07 0.06 0.06
0.08 0.09 0.08 0.07 0.07 0.07 0.08 0.08 0.07 0.08 0.10 0.11 0.12 0.11 0.10 0.09 0.08 0.07 0.08 0.07 0.06 0.05 0.05 0.06 0.06 0.06 0.06 0.06 0.07 0.06 0.06 0.06 0.07 0.09 0.10 0.11 0.11 0.10
0.06 0.07 0.08 0.08 0.08 0.08 0.08 0.09 0.09 0.09 0.09 0.08 0.08 0.07 0.07 0.07 0.07 0.07 0.07 0.06 0.05 0.04 0.03 0.03 0.03 0.04 0.04 0.04 0.06 0.06 0.06 0.07 0.07 0.07 0.07 0.08 0.08 0.08
0.03 0.04 0.05 0.06 0.08 0.10 0.11 0.11 0.11 0.10 0.09 0.08 0.07 0.06 0.06 0.05 0.05 0.05 0.06 0.06 0.05 0.04 0.03 0.03 0.04 0.03 0.03 0.03 0.03 0.04 0.04 0.05 0.05 0.04 0.04 0.04 0.04 0.05
0.02 0.02 0.03 0.05 0.08 0.09 0.11 0.13 0.13 0.11 0.10 0.09 0.09 0.08 0.07 0.06 0.06 0.06 0.06 0.06 0.06 0.05 0.04 0.04 0.05 0.04 0.04 0.04 0.03 0.03 0.03 0.03 0.04 0.03 0.03 0.02 0.02 0.03
0.02 0.01 0.02 0.04 0.05 0.07 0.09 0.11 0.14 0.13 0.12 0.10 0.09 0.08 0.06 0.05 0.04 0.04 0.05 0.05 0.05 0.05 0.04 0.04 0.04 0.04 0.04 0.04 0.04 0.03 0.03 0.03 0.02 0.02 0.01 0.01 0.01 0.01
0.03 0.03 0.03 0.03 0.04 0.05 0.05 0.06 0.07 0.06 0.06 0.08 0.09 0.08 0.06 0.04 0.04 0.03 0.04 0.04 0.04 0.03 0.03 0.02 0.02 0.03 0.03 0.03 0.03 0.02 0.02 0.01 0.01 0.01 0.01 0.00 0.00 0.00
0.01 0.02 0.03 0.03 0.04 0.04 0.04 0.05 0.04 0.04 0.04 0.04 0.05 0.05 0.05 0.04 0.04 0.04 0.03 0.02 0.02 0.02 0.02 0.02 0.03 0.03 0.03 0.02 0.01 0.01 0.01 0.01 0.01 0.01 0.01 0.00 0.01 0.01
0.01 0.02 0.03 0.04 0.04 0.04 0.04 0.04 0.03 0.03 0.04 0.04 0.05 0.05 0.05 0.04 0.03 0.03 0.03 0.03 0.03 0.03 0.03 0.03 0.03 0.02 0.01 0.01 0.01 0.01 0.01 0.01 0.01 0.01 0.01 0.01 0.01 0.01
0.02 0.02 0.02 0.03 0.03 0.03 0.04 0.03 0.03 0.03 0.04 0.03 0.04 0.03 0.03 0.03 0.03 0.03 0.03 0.03 0.03 0.03 0.03 0.02 0.02 0.01 0.01 0.00 0.00 0.00 0.00 0.00 0.00 0.01 0.01 0.01 0.01 0.01
0.02 0.01 0.01 0.01 0.02 0.02 0.02 0.03 0.02 0.02 0.02 0.02 0.03 0.03 0.03 0.03 0.03 0.03 0.03 0.03 0.03 0.03 0.03 0.02 0.01 0.01 0.00 0.00 0.00 0.00 0.00 0.00 0.00 0.00 0.01 0.01 0.01 0.01
0.01 0.01 0.01 0.02 0.02 0.02 0.02 0.02 0.02 0.03 0.03 0.03 0.03 0.03 0.03 0.03 0.03 0.03 0.03 0.03 0.03 0.02 0.01 0.01 0.00 0.00 0.00 0.00 0.00 0.00 0.00 0.00 0.00 0.00 0.00 0.01 0.01 0.01
0.03 0.03 0.03 0.03 0.02 0.03 0.03 0.03 0.03 0.04 0.04 0.04 0.04 0.04 0.04 0.03 0.03 0.03 0.03 0.03 0.03 0.02 0.01 0.00 0.00 0.00 0.00 0.00 0.00 0.00 0.00 0.00 0.00 0.00 0.01 0.00 0.00 0.00
0.04 0.04 0.05 0.05 0.06 0.06 0.07 0.07 0.06 0.06 0.06 0.06 0.05 0.04 0.03 0.03 0.03 0.02 0.02 0.02 0.01 0.01 0.01 0.00 0.00 0.00 0.00 0.00 0.00 0.00 0.00 0.00 0.00 0.00 0.00 0.00 0.00 0.01
0.04 0.05 0.06 0.07 0.08 0.09 0.09 0.10 0.10 0.10 0.09 0.08 0.06 0.04 0.04 0.03 0.03 0.02 0.02 0.01 0.01 0.01 0.00 0.00 0.00 0.00 0.00 0.00 0.00 0.00 0.00 0.00 0.00 0.00 0.00 0.00 0.00 0.00
0.05 0.06 0.07 0.08 0.09 0.10 0.11 0.11 0.10 0.10 0.09 0.08 0.06 0.04 0.03 0.02 0.01 0.01 0.01 0.00 0.00 0.00 0.00 0.00 0.00 0.00 0.00 0.00 0.00 0.00 0.00 0.00 0.00 0.00 0.00 0.00 0.00 0.00
MSLP
1015.12 1015.28 1015.50 1015.77 1016.05 1016.31 1016.52 1016.68 1016.78 1016.83 1016.84 1016.84 1016.86 1016.91 1017.01 1017.17 1017.40 1017.69 1018.05 1018.46 1018.92 1019.44 1020.00 1020.59 1021.21 1021.84 1022.47 1023.09 1023.66 1024.19 1024.65 1025.04 1025.35 1025.57 1025.72 1025.79 1025.80 1025.75
1014.38 1014.44 1014.59 1014.80 1015.06 1015.35 1015.64 1015.91 1016.14 1016.34 1016.52 1016.67 1016.83 1017.00 1017.20 1017.44 1017.72 1018.06 1018.45 1018.89 1019.39 1019.93 1020.51 1021.12 1021.75 1022.38 1023.00 1023.59 1024.14 1024.63 1025.05 1025.41 1025.68 1025.88 1026.01 1026.07 1026.07 1026.03
1013.65 1013.58 1013.60 1013.73 1013.94 1014.22 1014.56 1014.92 1015.30 1015.67 1016.04 1016.39 1016.74 1017.08 1017.43 1017.80 1018.19 1018.61 1019.07 1019.56 1020.10 1020.67 1021.27 1021.88 1022.50 1023.11 1023.68 1024.22 1024.70 1025.12 1025.47 1025.75 1025.96 1026.11 1026.20 1026.23 1026.23 1026.19
1012.99 1012.76 1012.65 1012.66 1012.78 1013.04 1013.39 1013.83 1014.33 1014.86 1015.42 1015.99 1016.56 1017.11 1017.66 1018.20 1018.73 1019.27 1019.82 1020.38 1020.97 1021.57 1022.17 1022.78 1023.38 1023.94 1024.46 1024.92 1025.32 1025.64 1025.90 1026.08 1026.21 1026.30 1026.34 1026.34 1026.33 1026.29
1012.47 1012.10 1011.84 1011.71 1011.74 1011.93 1012.27 1012.74 1013.34 1014.01 1014.75 1015.52 1016.30 1017.08 1017.83 1018.55 1019.25 1019.92 1020.58 1021.22 1021.86 1022.49 1023.11 1023.71 1024.27 1024.78 1025.23 1025.61 1025.91 1026.14 1026.29 1026.39 1026.44 1026.46 1026.45 1026.43 1026.40 1026.37
1012.18 1011.68 1011.28 1011.03 1010.95 1011.06 1011.36 1011.84 1012.48 1013.25 1014.12 1015.06 1016.03 1016.99 1017.93 1018.83 1019.68 1020.48 1021.24 1021.97 1022.65 1023.30 1023.92 1024.50 1025.03 1025.49 1025.87 1026.18 1026.40 1026.54 1026.62 1026.64 1026.62 1026.59 1026.55 1026.50 1026.46 1026.44
1012.18 1011.59 1011.10 1010.74 1010.56 1010.59 1010.82 1011.27 1011.91 1012.72 1013.67 1014.71 1015.80 1016.91 1017.99 1019.03 1020.00 1020.90 1021.74 1022.51 1023.23 1023.89 1024.50 1025.05 1025.54 1025.95 1026.28 1026.53 1026.69 1026.78 1026.81 1026.78 1026.73 1026.67 1026.60 1026.55 1026.51 1026.48
1012.49 1011.88 1011.34 1010.92 1010.67 1010.61 1010.77 1011.15 1011.75 1012.54 1013.50 1014.58 1015.72 1016.90 1018.05 1019.16 1020.20 1021.16 1022.03 1022.82 1023.53 1024.18 1024.76 1025.27 1025.72 1026.09 1026.39 1026.60 1026.73 1026.80 1026.81 1026.78 1026.72 1026.65 1026.59 1026.55 1026.51 1026.49
1013.11 1012.54 1012.02 1011.59 1011.29 1011.17 1011.25 1011.55 1012.07 1012.79 1013.69 1014.73 1015.86 1017.02 1018.17 1019.28 1020.32 1021.27 1022.12 1022.89 1023.56 1024.17 1024.70 1025.17 1025.57 1025.90 1026.18 1026.37 1026.51 1026.58 1026.60 1026.59 1026.56 1026.52 1026.48 1026.44 1026.42 1026.41
1014.01 1013.53 1013.07 1012.67 1012.38 1012.22 1012.24 1012.45 1012.87 1013.48 1014.28 1015.22 1016.25 1017.33 1018.41 1019.45 1020.41 1021.29 1022.08 1022.78 1023.38 1023.91 1024.38 1024.79 1025.14 1025.45 1025.70 1025.90 1026.05 1026.15 1026.21 1026.24 1026.25 1026.25 1026.24 1026.23 1026.23 1026.22
1015.09 1014.74 1014.39 1014.06 1013.80 1013.63 1013.60 1013.74 1014.05 1014.54 1015.20 1015.99 1016.89 1017.83 1018.77 1019.69 1020.54 1021.31 1021.99 1022.58 1023.09 1023.53 1023.92 1024.26 1024.57 1024.84 1025.08 1025.30 1025.47 1025.60 1025.71 1025.79 1025.84 1025.88 1025.91 1025.92 1025.93 1025.93
1016.24 1016.04 1015.81 1015.58 1015.37 1015.22 1015.17 1015.24 1015.46 1015.83 1016.34 1016.98 1017.70 1018.48 1019.27 1020.03 1020.73 1021.36 1021.92 1022.39 1022.79 1023.14 1023.45 1023.73 1023.99 1024.24 1024.47 1024.69 1024.88 1025.05 1025.20 1025.31 1025.41 1025.47 1025.53 1025.56 1025.57 1025.57
1017.36 1017.28 1017.17 1017.03 1016.89 1016.78 1016.73 1016.77 1016.91 1017.17 1017.56 1018.04 1018.61 1019.22 1019.84 1020.44 1021.00 1021.49 1021.92 1022.28 1022.59 1022.86 1023.10 1023.33 1023.54 1023.77 1023.98 1024.20 1024.41 1024.59 1024.76 1024.90 1025.01 1025.09 1025.15 1025.18 1025.19 1025.19
1018.32 1018.34 1018.32 1018.27 1018.20 1018.13 1018.10 1018.12 1018.22 1018.42 1018.70 1019.06 1019.48 1019.95 1020.42 1020.88 1021.31 1021.68 1022.01 1022.28 1022.52 1022.72 1022.91 1023.10 1023.29 1023.49 1023.70 1023.91 1024.11 1024.30 1024.47 1024.60 1024.71 1024.79 1024.83 1024.85 1024.84 1024.82
1019.04 1019.11 1019.15 1019.16 1019.16 1019.15 1019.15 1019.18 1019.27 1019.41 1019.62 1019.90 1020.22 1020.57 1020.93 1021.28 1021.60 1021.90 1022.15 1022.37 1022.56 1022.74 1022.91 1023.08 1023.26 1023.44 1023.64 1023.83 1024.02 1024.19 1024.33 1024.45 1024.53 1024.57 1024.59 1024.58 1024.55 1024.51
1019.46 1019.55 1019.62 1019.67 1019.72 1019.75 1019.79 1019.86 1019.95 1020.09 1020.27 1020.48 1020.73 1021.01 1021.29 1021.57 1021.83 1022.08 1022.29 1022.49 1022.67 1022.84 1023.02 1023.19 1023.37 1023.55 1023.74 1023.92 1024.08 1024.22 1024.32 1024.40 1024.44 1024.44 1024.41 1024.36 1024.29 1024.22
1019.59 1019.66 1019.73 1019.80 1019.88 1019.96 1020.05 1020.15 1020.28 1020.42 1020.59 1020.79 1021.01 1021.24 1021.48 1021.72 1021.95 1022.17 1022.39 1022.59 1022.79 1022.98 1023.17 1023.37 1023.56 1023.75 1023.92 1024.07 1024.20 1024.30 1024.36 1024.38 1024.37 1024.32 1024.24 1024.14 1024.04 1023.94
1019.48 1019.51 1019.56 1019.64 1019.74 1019.86 1020.00 1020.15 1020.31 1020.48 1020.66 1020.86 1021.07 1021.28 1021.49 1021.71 1021.94 1022.16 1022.39 1022.61 1022.84 1023.07 1023.30 1023.52 1023.72 1023.91 1024.08 1024.21 1024.30 1024.35 1024.36 1024.33 1024.26 1024.15 1024.02 1023.89 1023.74 1023.61
1019.21 1019.20 1019.23 1019.31 1019.43 1019.59 1019.77 1019.96 1020.16 1020.37 1020.58 1020.78 1020.98 1021.19 1021.39 1021.61 1021.83 1022.06 1022.30 1022.56 1022.82 1023.08 1023.34 1023.58 1023.80 1023.99 1024.14 1024.24 1024.30 1024.30 1024.26 1024.17 1024.05 1023.89 1023.72 1023.54 1023.36 1023.20
1018.89 1018.85 1018.87 1018.95 1019.09 1019.28 1019.50 1019.74 1019.98 1020.22 1020.45 1020.66 1020.86 1021.06 1021.26 1021.46 1021.68 1021.92 1022.17 1022.45 1022.73 1023.02 1023.29 1023.55 1023.77 1023.95 1024.08 1024.16 1024.17 1024.12 1024.03 1023.89 1023.72 1023.53 1023.32 1023.10 1022.90 1022.71
1018.62 1018.56 1018.58 1018.68 1018.84 1019.06 1019.32 1019.59 1019.87 1020.13 1020.37 1020.59 1020.79 1020.98 1021.16 1021.36 1021.57 1021.80 1022.05 1022.33 1022.62 1022.91 1023.20 1023.45 1023.66 1023.83 1023.92 1023.96 1023.93 1023.84 1023.70 1023.52 1023.31 1023.08 1022.84 1022.61 1022.38 1022.17
1018.47 1018.41 1018.44 1018.55 1018.74 1019.00 1019.29 1019.59 1019.89 1020.17 1020.43 1020.65 1020.84 1021.01 1021.18 1021.35 1021.54 1021.75 1022.00 1022.26 1022.54 1022.83 1023.09 1023.33 1023.52 1023.66 1023.72 1023.72 1023.65 1023.51 1023.33 1023.11 1022.87 1022.61 1022.35 1022.10 1021.85 1021.62
1018.45 1018.41 1018.46 1018.60 1018.82 1019.10 1019.42 1019.75 1020.07 1020.36 1020.62 1020.84 1021.01 1021.17 1021.31 1021.46 1021.62 1021.81 1022.03 1022.27 1022.53 1022.79 1023.03 1023.24 1023.40 1023.50 1023.53 1023.48 1023.37 1023.20 1022.98 1022.73 1022.47 1022.19 1021.91 1021.65 1021.39 1021.13
Thickness
5738 5737 5735 5735 5735 5735 5733 5728 5719 5711 5710 5714 5715 5716 5714 5711 5708 5705 5701 5698 5694 5691 5688 5685 5681 5678 5675 5672 5669 5666 5663 5661 5658 5655 5653 5650 5648 5646
5736 5734 5732 5731 5731 5731 5729 5727 5724 5717 5709 5710 5709 5708 5707 5704 5700 5697 5694 5691 5687 5684 5681 5677 5674 5671 5667 5664 5661 5658 5655 5652 5649 5646 5644 5641 5639 5636
5733 5731 5729 5728 5726 5725 5724 5722 5720 5716 5707 5705 5704 5702 5700 5696 5692 5689 5686 5682 5679 5676 5673 5670 5666 5663 5659 5655 5652 5649 5646 5643 5640 5637 5634 5631 5628 5625
5728 5727 5725 5724 5721 5720 5718 5716 5714 5712 5706 5698 5696 5694 5691 5689 5685 5682 5679 5675 5671 5667 5664 5661 5657 5654 5650 5646 5643 5639 5636 5633 5630 5627 5624 5621 5617 5614
5725 5722 5721 5719 5716 5714 5713 5711 5709 5707 5703 5696 5690 5687 5684 5681 5677 5674 5671 5667 5663 5659 5655 5651 5648 5644 5640 5636 5632 5630 5627 5623 5620 5617 5613 5610 5606 5603
5720 5718 5716 5714 5711 5709 5707 5705 5702 5699 5696 5691 5685 5681 5677 5673 5670 5666 5661 5658 5654 5650 5645 5641 5637 5634 5630 5626 5622 5619 5616 5613 5609 5606 5602 5598 5595 5592
5714 5712 5710 5709 5706 5704 5701 5699 5696 5692 5688 5683 5678 5673 5669 5666 5663 5661 5655 5650 5644 5640 5635 5630 5627 5623 5618 5614 5611 5608 5605 5601 5598 5595 5591 5587 5583 5580
5708 5706 5704 5702 5699 5697 5695 5692 5690 5686 5681 5677 5672 5667 5663 5660 5657 5654 5649 5643 5636 5631 5627 5620 5616 5612 5608 5603 5600 5597 5593 5590 5587 5583 5579 5575 5571 5567
5701 5699 5697 5695 5692 5690 5687 5685 5682 5680 5677 5673 5667 5662 5658 5655 5651 5646 5641 5635 5628 5623 5618 5611 5607 5603 5599 5594 5590 5586 5582 5578 5574 5571 5567 5564 5560 5555
5694 5692 5689 5687 5685 5682 5680 5676 5672 5669 5668 5665 5662 5657 5653 5649 5645 5640 5634 5626 5620 5614 5610 5603 5598 5593 5589 5583 5579 5575 5570 5566 5562 5558 5554 5550 5547 5543
5686 5684 5682 5679 5677 5675 5673 5668 5663 5659 5656 5655 5652 5648 5645 5641 5637 5631 5625 5618 5610 5603 5599 5595 5589 5584 5579 5573 5569 5564 5560 5555 5550 5547 5542 5538 5535 5531
5679 5676 5673 5671 5669 5667 5665 5661 5656 5651 5648 5645 5641 5638 5634 5631 5627 5623 5618 5611 5604 5595 5589 5585 5580 5575 5569 5564 5559 5554 5549 5545 5540 5536 5532 5528 5524 5520
5672 5668 5664 5661 5660 5658 5655 5652 5647 5644 5640 5636 5631 5627 5623 5619 5615 5611 5607 5602 5596 5588 5582 5577 5571 5565 5560 5554 5550 5545 5541 5537 5532 5528 5524 5519 5515 5510
5664 5659 5655 5652 5650 5648 5645 5642 5638 5634 5631 5626 5621 5616 5612 5607 5602 5598 5594 5589 5585 5580 5574 5569 5563 5557 5550 5545 5540 5537 5533 5529 5525 5520 5516 5512 5507 5503
5654 5650 5646 5643 5640 5638 5635 5632 5629 5625 5621 5616 5610 5605 5601 5596 5591 5586 5581 5577 5573 5569 5564 5559 5554 5548 5542 5536 5532 5528 5524 5521 5517 5513 5509 5505 5501 5496
5645 5640 5637 5633 5631 5627 5624 5621 5618 5615 5611 5606 5601 5596 5591 5585 5580 5576 5572 5567 5561 5556 5553 5548 5543 5538 5533 5528 5524 5520 5517 5512 5509 5505 5502 5498 5495 5491
5636 5632 5629 5625 5622 5618 5614 5611 5608 5604 5600 5595 5591 5585 5580 5575 5570 5566 5562 5558 5552 5546 5541 5537 5532 5528 5524 5520 5516 5512 5509 5505 5502 5498 5495 5492 5489 5486
5629 5625 5621 5618 5614 5609 5605 5601 5597 5593 5589 5585 5580 5575 5570 5565 5560 5556 5552 5547 5541 5536 5531 5527 5523 5519 5514 5511 5508 5504 5501 5498 5495 5492 5489 5485 5482 5480
5620 5618 5613 5609 5604 5600 5596 5591 5586 5582 5578 5574 5569 5565 5560 5555 5550 5545 5541 5536 5531 5527 5522 5518 5515 5511 5506 5503 5499 5497 5494 5492 5489 5486 5483 5480 5477 5475
5610 5608 5603 5599 5595 5590 5585 5580 5576 5571 5567 5563 5558 5554 5550 5545 5540 5536 5531 5526 5522 5518 5514 5511 5507 5504 5500 5497 5494 5491 5489 5487 5484 5480 5478 5476 5473 5472
5601 5597 5593 5588 5583 5578 5574 5569 5565 5561 5556 5552 5547 5543 5539 5535 5530 5527 5522 5517 5515 5511 5507 5503 5500 5498 5496 5493 5490 5487 5485 5483 5480 5477 5474 5471 5469 5467
5591 5587 5582 5577 5572 5568 5563 5559 5555 5550 5546 5542 5537 5533 5529 5525 5522 5518 5515 5511 5508 5505 5501 5498 5495 5493 5490 5487 5485 5483 5481 5479 5477 5475 5472 5469 5464 5462
5581 5577 5572 5567 5563 5558 5554 5550 5546 5542 5538 5534 5529 5525 5521 5517 5514 5511 5508 5505 5502 5499 5496 5493 5490 5487 5485 5483 5481 5479 5477 5475 5474 5471 5469 5468 5465 5463